Header for Extended Forecast Station List Page

Search by: ID | Name | Date | Parm | Value | Avg | % Avg
Sort by: ID | Name | Date | Parm | Value | Avg | % Avg

Enter search or view all records.

Click on id for station plot
#IDNameDateParmValueAvg% Avg
0DLGM8CLARK FORK-AT DEER LODGE05-13-2024DISCHARGE (KAF)176128
1TONW1OKANOGAN-NEAR TONASKET05-13-2024DISCHARGE (KAF)469116640
2DRMM8CLARK FORK-NR DRUMMOND05-13-2024DISCHARGE (KAF)7517942
3BONM8BLACKFOOT-NEAR BONNER05-13-2024DISCHARGE (KAF)24754845
4ABOM8CLARK FORK-ABOVE MISSOULA05-13-2024DISCHARGE (KAF)47899748
5SPOW1SPOKANE-AT SPOKANE05-13-2024DISCHARGE (KAF)582119749
6SATI1ST MARIES-NEAR SANTA05-13-2024DISCHARGE (KAF)244750
7COEI1COEUR D ALENE-COEUR D ALENE LAKE05-13-2024INFLOW (KAF)553108751
8LLKW1SPOKANE-AT LONGLAKE05-13-2024INFLOW (KAF)727139252
9PARW1YAKIMA-NEAR PARKER05-13-2024DISCHARGE (KAF)16531952
10BELM8CLARK FORK-BELOW MISSOULA05-13-2024DISCHARGE (KAF)1070191756
11SRGM8CLARK FORK-AT ST REGIS05-13-2024DISCHARGE (KAF)1457249858
12PRTI1PRIEST-NEAR PRIEST RIVER05-13-2024DISCHARGE (KAF)28849758
13LAUW1KETTLE-AT LAURIER05-13-2024DISCHARGE (KAF)680116558
14TRYO3GRANDE RONDE-TROY05-13-2024DISCHARGE (KAF)43071960
15KADW1KACHESS-KACHESS DAM05-13-2024INFLOW (KAF)365861
16TCHW1WALLA WALLA-NEAR TOUCHET05-13-2024DISCHARGE (KAF)264261
17CHDW1CHELAN-LAKE CHELAN DAM05-13-2024INFLOW (KAF)49879762
18PATW1METHOW-NEAR PATEROS05-13-2024DISCHARGE (KAF)41864565
19RCCM8ROCK CREEK-NEAR CLINTON05-13-2024DISCHARGE (KAF)13720666
20NOXM8CLARK FORK-NOXON RAPIDS DAM05-13-2024INFLOW (KAF)4424665666
21CABI1CLARK FORK-CABINET GORGE DAM05-13-2024INFLOW (KAF)4841729866
22MYKO3MCKAY CREEK-NEAR PILOT ROCK05-13-2024DISCHARGE (KAF)3566
23BITM8BITTERROOT-NEAR MISSOULA05-13-2024DISCHARGE (KAF)59288367
24ALFW1PEND OREILLE-ALBENI FALLS DAM05-13-2024INFLOW (KAF)5394788568
25KEDW1YAKIMA-KEECHELUS LAKE05-13-2024INFLOW (KAF)466868
26DWRI1NF CLEARWATER-DWORSHAK DAM05-13-2024INFLOW (KAF)978143168
27STRM8ST. REGIS-NEAR ST. REGIS05-13-2024DISCHARGE (KAF)10415070
28ARAI1SF BOISE-ANDERSON RANCH DAM05-13-2024INFLOW (KAF)18726970
29CLUW1CLE ELUM-CLE ELUM LAKE05-13-2024INFLOW (KAF)18225671
30FCFM8NF FLATHEAD-NEAR COLUMBIA FALLS05-13-2024DISCHARGE (KAF)883121673
31TNAW1TEANAWAY-BELOW FORKS05-13-2024DISCHARGE (KAF)405573
32HHWM8SF FLATHEAD-HUNGRY HORSE DAM05-13-2024INFLOW (KAF)1016135775
33PRWW1COLUMBIA-PRIEST RAPIDS DAM05-13-2024INFLOW (KAF)245333252075
34EMMI1PAYETTE-NEAR EMMETT05-13-2024DISCHARGE (KAF)64285575
35MONO3NF JOHN DAY-AT MONUMENT05-13-2024DISCHARGE (KAF)16121575
36CIBW1COLUMBIA-AT INTL BOUNDARY05-13-2024DISCHARGE (KAF)225422966376
37WELW1COLUMBIA-WELLS DAM05-13-2024INFLOW (KAF)233263050176
38RRHW1COLUMBIA-ROCKY REACH DAM05-13-2024INFLOW (KAF)237273139876
39WANW1COLUMBIA-WANAPUM DAM05-13-2024INFLOW (KAF)245823241576
40ANTI1HENRYS FORK-AT ST. ANTHONY05-13-2024DISCHARGE (KAF)35946977
41MCDW1COLUMBIA-MCNARY DAM05-13-2024INFLOW (KAF)372604810677
42KERM8FLATHEAD-SELI’Š KSANKA QLISPE’ DAM05-13-2024INFLOW (KAF)3147403678
43UMTW1YAKIMA-AT UMTANUM05-13-2024DISCHARGE (KAF)64282178
44CHJW1COLUMBIA-CHIEF JOSEPH DAM05-13-2024INFLOW (KAF)224192853479
45ARDW1ENTIAT-NEAR ARDENVOIR05-13-2024DISCHARGE (KAF)12315679
46JDAO3COLUMBIA-JOHN DAY DAM05-13-2024INFLOW (KAF)382994818179
47BONO3COLUMBIA-BONNEVILLE DAM05-13-2024INFLOW (KAF)392964990979
48GCDW1COLUMBIA-GRAND COULEE DAM05-13-2024INFLOW (KAF)239952996380
49KIOW1YAKIMA-AT KIONA05-13-2024DISCHARGE (KAF)46858580
50CHEI1FALL RIVER-NEAR CHESTER05-13-2024DISCHARGE (KAF)19524380
51TDAO3COLUMBIA-THE DALLES DAM05-13-2024INFLOW (KAF)386514837880
52WGCM8MF FLATHEAD-NEAR WEST GLACIER05-13-2024DISCHARGE (KAF)935115281
53ORFI1CLEARWATER-AT OROFINO05-13-2024DISCHARGE (KAF)2243278181
54CLFW1NACHES-NEAR CLIFFDEL05-13-2024DISCHARGE (KAF)20725382
55DEDI1DEADWOOD-NEAR LOWMAN05-13-2024INFLOW (KAF)708582
56SPDI1CLEARWATER-AT SPALDING05-13-2024DISCHARGE (KAF)4019482483
57SERO3JOHN DAY-AT SERVICE CK05-13-2024DISCHARGE (KAF)25830983
58CFMM8FLATHEAD-AT COLUMBIA FALLS05-13-2024DISCHARGE (KAF)2820336184
59PESW1WENATCHEE-AT PESHASTIN05-13-2024DISCHARGE (KAF)83999884
60BERO3MALHEUR-AGENCY VALLEY DAM05-13-2024INFLOW (KAF)202484
61LGSW1SNAKE-LITTLE GOOSE DAM05-13-2024INFLOW (KAF)120841431884
62UMAO3UMATILLA-NEAR UMATILLA05-13-2024DISCHARGE (KAF)323884
63LYDM8KOOTENAI-LIBBY DAM05-13-2024INFLOW (KAF)4097479685
64LEOI1KOOTENAI-AT LEONIA05-13-2024DISCHARGE (KAF)3386398585
65IPDI1HENRYS FORK-ISLAND PARK DAM05-13-2024INFLOW (KAF)14316885
66LGDW1SNAKE-LOWER GRANITE DAM05-13-2024INFLOW (KAF)121181434185
67LMNW1SNAKE-LOWER MONUMENTAL DAM05-13-2024INFLOW (KAF)121061429685
68IHDW1SNAKE-ICE HARBOR DAM05-13-2024INFLOW (KAF)121551430385
69RILW1TIETON-RIMROCK LAKE NEAR RIMROCK05-13-2024INFLOW (KAF)12614786
70UNDW1WHITE SALMON-NEAR UNDERWOOD05-13-2024DISCHARGE (KAF)19422686
71CSDI1NF PAYETTE-CASCADE DAM05-13-2024INFLOW (KAF)25429387
72BUDW1BUMPING-BUMPING LAKE DAM05-13-2024INFLOW (KAF)677688
73REXI1HENRYS FORK-AT REXBURG05-13-2024DISCHARGE (KAF)47654288
74ANAW1SNAKE-NEAR ANATONE05-13-2024DISCHARGE (KAF)8119917788
75EASW1YAKIMA-AT EASTON05-13-2024DISCHARGE (KAF)758490
76NACW1NACHES-NEAR NACHES05-13-2024DISCHARGE (KAF)34438390
77GIBO3UMATILLA-NEAR GIBBON05-13-2024DISCHARGE (KAF)252790
78WHBI1SALMON-AT WHITEBIRD05-13-2024DISCHARGE (KAF)3838420291
79PDTO3UMATILLA-AT PENDLETON05-13-2024DISCHARGE (KAF)394292
80HOTI1BRUNEAU-NEAR HOT SPRINGS05-13-2024DISCHARGE (KAF)939993
81LUCI1BOISE-LUCKY PEAK DAM05-13-2024INFLOW (KAF)89196293
82LWRI1LITTLE WOOD-LITTLE WOOD DAM05-13-2024INFLOW (KAF)353696
83PITW1KLICKITAT-NEAR PITT05-13-2024DISCHARGE (KAF)29931296
84HODO3HOOD-NEAR TUCKER BRIDGE05-13-2024DISCHARGE (KAF)13113696
85MODO3DESCHUTES-AT MOODY NR BIGGS05-13-2024DISCHARGE (KAF)1125115098
86HALI1BIG WOOD-AT HAILEY05-13-2024DISCHARGE (KAF)157156101
87MAGI1BIG WOOD-MAGIC DAM05-13-2024INFLOW (KAF)105105101
88WSRI1WEISER-NEAR WEISER05-13-2024DISCHARGE (KAF)171170101
89JLKW4SNAKE-JACKSON LAKE AT DAM05-13-2024INFLOW (KAF)623605103
90HEII1SNAKE-NEAR HEISE05-13-2024DISCHARGE (KAF)31492914108
91BRNI1SNAKE-BROWNLEE DAM05-13-2024INFLOW (KAF)36133358108
92ALPW4SNAKE-NEAR ALPINE05-13-2024DISCHARGE (KAF)20911910109
93JKSW4SNAKE-NEAR JACKSON05-13-2024DISCHARGE (KAF)17111557110
94WEII1SNAKE-AT WEISER05-13-2024DISCHARGE (KAF)33803062110
95PLDI1SF SNAKE-PALISADES DAM05-13-2024INFLOW (KAF)29032521115
96SIFI1SNAKE-AB EAGLE ROCK NR IDAHO FALLS05-13-2024DISCHARGE (KAF)22311914117
97BIGI1BOISE-AT GLENWOOD BRIDGE05-13-2024DISCHARGE (KAF)315269117
98TEAI1TETON-NEAR ST. ANTHONY05-13-2024DISCHARGE (KAF)381319119
99SHYI1SNAKE-NEAR SHELLEY05-13-2024DISCHARGE (KAF)20361712119
100WRMO3MALHEUR-WARM SPRINGS DAM05-13-2024INFLOW (KAF)1815120
101SWAI1SNAKE-BELOW SWAN FALLS05-13-2024DISCHARGE (KAF)20301667122
102PARI1BOISE-NEAR PARMA05-13-2024DISCHARGE (KAF)284233122
103AFRI1SNAKE-AMERICAN FALLS RESERVOIR05-13-2024INFLOW (KAF)20021533131
104HWRI1BIG LOST-AT HOWELL RANCH NEAR CHILLY05-13-2024DISCHARGE (KAF)161122132
105SNAI1SNAKE-AT BLACKFOOT05-13-2024DISCHARGE (KAF)14031039135
106BFTI1SNAKE-NEAR BLACKFOOT05-13-2024DISCHARGE (KAF)14251002142
107MACI1BIG LOST-MACKAY RESERVOIR NEAR MACKAY05-13-2024INFLOW (KAF)14392155
108OWYO3OWYHEE-OWYHEE DAM05-13-2024INFLOW (KAF)173109159
109PIHI1PORTNEUF-AT POCATELLO05-13-2024DISCHARGE (KAF)6127222
110RIDI1WILLOW CREEK-RIRIE DAM05-13-2024INFLOW (KAF)4118226
111MILI1SNAKE-AT MILNER05-13-2024DISCHARGE (KAF)35348729
112BFEI1KOOTENAI-AT BONNERS FERRY05-13-2024STAGE (FT)MMM
113HOPI1PEND OREILLE-LAKE PEND OREILLE NR HOPE05-13-2024LAKE ELEVATION (FT)MMM
114SJMI1ST JOE-AT ST MARIES05-13-2024STAGE (FT)MMM
115BULO3BULLY CREEK-BULLY CREEK DAM05-13-2024INFLOW (KAF)1MM